Simultaneous Nadir Overpasses (SNOs) Predictions

Prediction of SNOs between AURA and LANDSAT-8 Satellite Orbit:

Table of predicted SNOs for the next 14.0 days since TLE Epoch: 4/9/2025
Index Date (AURA) Time (AURA) Lat,Lon (AURA) SZA (AURA ) Date (LANDSAT-8) Time (LANDSAT-8) Lat,Lon (LANDSAT-8) SZA (LANDSAT-8 ) Distance(km) Time Diff (sec)
1 04/22/2025 13:08:40 -73.02, 165.91 119.43 04/22/2025 13:07:32 -72.99, 163.96 119.50 63.66 68
2 04/22/2025 13:58:03 73.14, -26.65 60.67 04/22/2025 13:56:54 73.15, -28.07 60.66 45.64 69
3 04/22/2025 14:47:29 -73.49, 140.28 119.01 04/22/2025 14:46:16 -73.46, 140.19 119.04 4.78 73
4 04/22/2025 15:36:50 73.50, -52.08 61.00 04/22/2025 15:35:40 73.52, -52.04 61.01 2.04 70
5 04/22/2025 16:26:09 -73.49, 115.62 119.03 04/22/2025 16:25:08 -73.50, 115.57 119.02 2.67 61
6 04/22/2025 17:15:30 73.50, -76.74 60.97 04/22/2025 17:14:33 73.51, -76.77 60.98 1.91 57
7 04/22/2025 18:04:50 -73.54, 90.86 119.01 04/22/2025 18:04:00 -73.55, 90.95 118.99 3.35 50
8 04/22/2025 18:54:10 73.49,-101.39 60.95 04/22/2025 18:53:26 73.51,-101.50 60.95 3.78 44
9 04/22/2025 19:43:30 -73.53, 66.20 119.04 04/22/2025 19:42:53 -73.55, 66.21 119.02 1.77 37
10 04/22/2025 20:32:51 73.54,-126.16 60.97 04/22/2025 20:32:18 73.55,-126.12 60.98 1.71 33
11 04/22/2025 21:22:10 -73.53, 41.54 119.06 04/22/2025 21:21:46 -73.54, 41.48 119.05 2.47 24
12 04/22/2025 22:11:31 73.54,-150.82 60.94 04/22/2025 22:11:11 73.55,-150.86 60.95 1.62 20
13 04/22/2025 23:00:51 -73.57, 16.77 119.04 04/22/2025 23:00:38 -73.59, 16.86 119.02 3.12 13
14 04/22/2025 23:50:12 73.59,-175.59 60.97 04/22/2025 23:50:03 73.60,-175.48 60.98 3.64 9
15 04/23/2025 00:39:31 -73.57, -7.88 119.06 04/23/2025 00:39:31 -73.58, -7.87 119.05 1.35 0
16 04/23/2025 01:28:52 73.58, 159.75 60.94 04/23/2025 01:28:56 73.59, 159.79 60.95 1.40 4
17 04/23/2025 02:18:11 -73.57, -32.54 119.09 04/23/2025 02:18:24 -73.58, -32.60 119.08 2.22 13
18 04/23/2025 03:07:32 73.58, 135.10 60.91 04/23/2025 03:07:49 73.58, 135.06 60.92 1.30 17



Historial Predications of SNOs between AURA and LANDSAT-8
